Weather in Velikie Tseptsevichi

Ukraine / Rovno District     51°23′29″N   26°23′44″E
temp.,
°C
wind,
m/s
gust,
m/s
humid.,
%
clouds,
%
prec.,
mm/h
press.,
hPa
HPBL,
m
19 april, mon
mon1900:00+7e379349 0.0 1019150
03:00+5e35953 0.0 1019110
06:00+5ne35935 0.0 101877
09:00+8ne578126 0.0 1018642
12:00+8ene4681100 0.0 1018929
15:00+10e557199 0.1 1018872
18:00+11ene567198 0.2 1017825
21:00+7ne368330 0.3 1017117
20 april, tue
tue2000:00+5ne338784 0.0 101637
03:00+5ne349498 0.2 101571
06:00+4ne37967 0.1 1015150
09:00+7ene468410 0.1 1015425
12:00+9ne567170 0.3 10141156
15:00+9nne456520 0.4 1013763
18:00+11nne346399 0.3 10111047
21:00+8nne227883 0.5 101229
21 april, wed
wed2100:00+5nnw22885 0.0 101111
03:00+4nw11915 0.0 101110
06:00+4w229385 0.1 101120
09:00+8w248082 0.1 1011343
12:00+12w466372 0.4 10101168
15:00+13w5757100 1.6 10101447
18:00+13wnw4663100 0.8 1010876
21:00+8wsw227585 1.1 101113
22 april, thu
thu2200:00+9sw347883 0.0 101177
03:00+6sw498874 0.0 1012181
06:00+6sw499478 0.0 1012209
09:00+9wsw478676 0.0 1013431
12:00+12wnw5666100 1.6 10141052
15:00+13w566093 2.1 10141424
18:00+11wsw566411 0.1 10151021
21:00+8sw227992 0.1 101524
23 april, fri
fri2300:00+6w2384100 0.0 101451
03:00+6wnw2590100 4.3 1015444
06:00+5w3685100 0.1 1015186
09:00+6w4772100 0.1 1016546
12:00+9w575699 0.0 10161599
15:00+9wnw775788 0.1 10171415
18:00+7wnw676575 0.1 10181100
21:00+4wsw347837 0.1 101866